Xtreme Racing in GPRO
 
HomeHome  PortalPortal  CalendarCalendar  FAQFAQ  SearchSearch  MemberlistMemberlist  UsergroupsUsergroups  RegisterRegister  Log inLog in  

Share | 
 

 Seasn 25 Race 6 Zolder

Go down 
AuthorMessage
mmarian



Posts : 33
Points : 67
Reputation : 0
Join date : 2011-02-18

PostSubject: Seasn 25 Race 6 Zolder   Wed May 11, 2011 1:46 am

Previous race: Zolder GP (Belgium)

Power:
Handling:
Acceleration:
Best qualifying lap
Edvinas Pranculevicius: 1:08.332s (Season 15)
Track record
Adam Wierzba: 1:08.713s (Season 15)
Weather forecast (for the previous race)
Practice / Qualify 1 Qualify 2 / Race start

Temp: 8°C
Humidity: 25%
Temp: 7°C
Humidity: 29%
Race forecast
Start - 0h30m 0h30m - 1h
Temp: 6°-10°
Humidity: 28%-38%
Rain probability: 0%-5% Temp: 5°-10°
Humidity: 30%-40%
Rain probability: 0%-6%
1h - 1h30m 1h30m - 2h
Temp: 5°-11°
Humidity: 26%-38%
Rain probability: 0%-2% Temp: 6°-11°
Humidity: 26%-40%
Rain probability: 0%
Race settings and strategy
Risks used
Overtake Defend Clear Malfunct
40 50 20 0

Setup used
FWing RWing Eng Bra Gear Susp
671 621 604 395 704 655

Start fuel: 120 liters

Pit Pitstop reason Tyres condition
Fuel left Refilled to Pit time
Stop 1
(Lap 37) No more fuel was left 5% 1% 120 liters 31.065s

Tyres condition after finish: 14%

Fuel left in the car after finish: 14 liters

Lap information
Lap Lap time Pos Tyres Weather Temp Hum Events
0 - 11 Medium Very Cloudy 7° 29% -
1 1:29.188 12 Medium Very Cloudy 7° 29% -
2 1:20.523 12 Medium Very Cloudy 7° 29% -
3 1:20.110 12 Medium Very Cloudy 7° 29% -
4 1:20.293 12 Medium Very Cloudy 7° 29% -
5 1:20.056 12 Medium Very Cloudy 7° 29% -
6 1:19.779 12 Medium Very Cloudy 7° 29% -
7 1:19.965 12 Medium Cloudy 6° 29% -
8 1:20.108 12 Medium Cloudy 6° 29% -
9 1:19.683 12 Medium Cloudy 6° 29% -
10 1:19.746 11 Medium Cloudy 6° 29% -
11 1:19.858 10 Medium Cloudy 6° 29% -
12 1:19.707 10 Medium Cloudy 6° 28% -
13 1:19.842 10 Medium Cloudy 6° 28% -
14 1:20.014 10 Medium Cloudy 6° 28% -
15 1:19.783 10 Medium Cloudy 6° 28% -
16 1:19.729 10 Medium Cloudy 6° 28% -
17 1:19.772 10 Medium Cloudy 6° 28% -
18 1:19.682 10 Medium Cloudy 6° 28% -
19 1:19.606 10 Medium Cloudy 6° 28% -
20 1:19.356 9 Medium Cloudy 6° 28% -
21 1:19.361 9 Medium Cloudy 7° 28% -
22 1:19.418 8 Medium Cloudy 8° 28% -
23 1:18.898 7 Medium Cloudy 8° 28% -
24 1:19.193 6 Medium Cloudy 8° 28% -
25 1:19.193 3 Medium Cloudy 8° 28% -
26 1:19.118 3 Medium Cloudy 8° 28% -
27 1:19.013 3 Medium Cloudy 9° 28% -
28 1:18.768 3 Medium Very Cloudy 9° 28% -
29 1:18.791 3 Medium Very Cloudy 9° 29% -
30 1:18.580 3 Medium Very Cloudy 9° 30% -
31 1:18.794 3 Medium Very Cloudy 9° 30% -
32 1:18.934 3 Medium Very Cloudy 9° 30% -
33 1:19.059 3 Medium Very Cloudy 9° 30% -
34 1:19.553 3 Medium Very Cloudy 9° 30% -
35 1:20.036 6 Medium Very Cloudy 9° 30% -
36 1:20.328 6 Medium Very Cloudy 9° 30% -
37 1:30.497 7 Medium Very Cloudy 9° 30% Pit
38 2:01.804 11 Medium Very Cloudy 9° 30% -
39 1:20.648 11 Medium Very Cloudy 9° 30% -
40 1:20.342 11 Medium Very Cloudy 9° 30% -
41 1:20.458 10 Medium Very Cloudy 9° 30% -
42 1:20.335 10 Medium Cloudy 9° 30% -
43 1:23.029 13 Medium Cloudy 9° 30% Driver mistake
44 1:20.562 12 Medium Cloudy 9° 30% -
45 1:21.147 12 Medium Cloudy 10° 30% -
46 1:20.871 11 Medium Cloudy 10° 30% -
47 1:21.405 12 Medium Cloudy 10° 30% -
48 1:21.791 13 Medium Cloudy 10° 30% -
49 1:20.029 11 Medium Cloudy 10° 29% -
50 1:19.527 11 Medium Cloudy 10° 28% -
51 1:19.590 10 Medium Cloudy 10° 27% -
52 1:19.385 10 Medium Cloudy 10° 27% -
53 1:19.426 10 Medium Cloudy 10° 27% -
54 1:19.514 9 Medium Cloudy 10° 27% -
55 1:19.510 8 Medium Cloudy 10° 27% -
56 1:19.458 8 Medium Cloudy 10° 26% -
57 1:19.558 8 Medium Cloudy 9° 26% -
58 1:19.308 8 Medium Cloudy 9° 26% -
59 1:22.012 8 Medium Cloudy 8° 26% Driver mistake
60 1:19.220 8 Medium Cloudy 8° 26% -
61 1:19.250 8 Medium Cloudy 8° 26% -
62 1:19.377 6 Medium Cloudy 8° 26% -
63 1:19.244 6 Medium Cloudy 8° 26% -
64 1:18.793 5 Medium Cloudy 8° 26% -
65 1:19.179 4 Medium Cloudy 8° 26% -
66 1:18.658 4 Medium Cloudy 9° 26% -
67 1:18.476 4 Medium Cloudy 9° 26% -
68 1:18.677 4 Medium Cloudy 9° 26% -
69 1:19.035 4 Medium Cloudy 9° 26% -
70 1:19.742 4 Medium Cloudy 8° 26% -

OH YA P3 in champ. my driver is good!
Back to top Go down
View user profile
PaulC



Posts : 94
Points : 187
Reputation : 0
Join date : 2010-08-01
Age : 50
Location : New Hampshire

PostSubject: Re: Seasn 25 Race 6 Zolder   Thu May 12, 2011 1:15 pm

Practice / Qualify 1 Qualify 2 / Race start
Rain
Temp: 8°C
Humidity: 25% Very Cloudy
Temp: 7°C
Humidity: 29%
Race forecast
Start - 0h30m 0h30m - 1h
Temp: 6°-10°
Humidity: 28%-38%
Rain probability: 0%-5% Temp: 5°-10°
Humidity: 30%-40%
Rain probability: 0%-6%
1h - 1h30m 1h30m - 2h
Temp: 5°-11°
Humidity: 26%-38%
Rain probability: 0%-2% Temp: 6°-11°
Humidity: 26%-40%
Rain probability: 0%
Race settings and strategy
Risks used
Overtake Defend Clear Malfunct
0 0 20 0

Setup used
FWing RWing Eng Bra Gear Susp
742 692 776 308 574 791

Start fuel: 70 liters
Pit Pitstop reason Tyres condition
Fuel left Refilled to Pit time
Stop 1
(Lap 24) The tyres could not do any more laps 3% 2% 74 liters 30.202s
Stop 2
(Lap 47) The tyres could not do any more laps 3% 5% 74 liters 26.467s

Tyres condition after finish: 3%

Fuel left in the car after finish: 9 liters

Lap information
Lap Lap time Pos Tyres Weather Temp Hum Events
0 - 1 Extra Soft Very Cloudy 7° 29% -
1 1:21.372 1 Extra Soft Very Cloudy 7° 29% -
2 1:16.531 1 Extra Soft Very Cloudy 7° 29% -
3 1:16.355 1 Extra Soft Very Cloudy 7° 29% -
4 1:16.226 1 Extra Soft Very Cloudy 7° 29% -
5 1:16.065 1 Extra Soft Very Cloudy 7° 29% -
6 1:16.016 1 Extra Soft Very Cloudy 7° 29% -
7 1:16.072 1 Extra Soft Cloudy 6° 29% -
8 1:16.055 1 Extra Soft Cloudy 6° 29% -
9 1:15.962 1 Extra Soft Cloudy 6° 29% -
10 1:15.998 1 Extra Soft Cloudy 6° 29% -
11 1:15.950 1 Extra Soft Cloudy 6° 29% -
12 1:15.938 1 Extra Soft Cloudy 6° 28% -
13 1:15.885 1 Extra Soft Cloudy 6° 28% -
14 1:15.822 1 Extra Soft Cloudy 6° 28% -
15 1:15.759 1 Extra Soft Cloudy 6° 28% -
16 1:15.761 1 Extra Soft Cloudy 6° 28% -
17 1:15.755 1 Extra Soft Cloudy 6° 28% -
18 1:15.707 1 Extra Soft Cloudy 6° 28% -
19 1:15.681 1 Extra Soft Cloudy 6° 28% -
20 1:15.613 1 Extra Soft Cloudy 6° 28% -
21 1:16.060 1 Extra Soft Cloudy 7° 28% -
22 1:16.727 1 Extra Soft Cloudy 8° 28% -
23 1:17.537 1 Extra Soft Cloudy 8° 28% -
24 1:28.256 3 Extra Soft Cloudy 8° 28% Pit
25 1:56.763 5 Extra Soft Cloudy 8° 28% -
26 1:16.542 5 Extra Soft Cloudy 8° 28% -
27 1:16.284 5 Extra Soft Cloudy 9° 28% -
28 1:16.127 4 Extra Soft Very Cloudy 9° 28% -
29 1:16.029 4 Extra Soft Very Cloudy 9° 29% -
30 1:15.808 4 Extra Soft Very Cloudy 9° 30% -
31 1:16.523 4 Extra Soft Very Cloudy 9° 30% -
32 1:15.685 4 Extra Soft Very Cloudy 9° 30% -
33 1:15.616 4 Extra Soft Very Cloudy 9° 30% -
34 1:15.633 4 Extra Soft Very Cloudy 9° 30% -
35 1:15.634 4 Extra Soft Very Cloudy 9° 30% -
36 1:16.410 4 Extra Soft Very Cloudy 9° 30% -
37 1:15.628 4 Extra Soft Very Cloudy 9° 30% -
38 1:15.418 3 Extra Soft Very Cloudy 9° 30% -
39 1:15.500 3 Extra Soft Very Cloudy 9° 30% -
40 1:15.653 3 Extra Soft Very Cloudy 9° 30% -
41 1:16.350 3 Extra Soft Very Cloudy 9° 30% -
42 1:15.406 3 Extra Soft Cloudy 9° 30% -
43 1:15.435 3 Extra Soft Cloudy 9° 30% -
44 1:15.755 3 Extra Soft Cloudy 9° 30% -
45 1:16.393 3 Extra Soft Cloudy 10° 30% -
46 1:17.296 3 Extra Soft Cloudy 10° 30% -
47 1:28.151 3 Extra Soft Cloudy 10° 30% Pit
48 1:52.861 5 Extra Soft Cloudy 10° 30% -
49 1:16.417 5 Extra Soft Cloudy 10° 29% -
50 1:16.253 5 Extra Soft Cloudy 10° 28% -
51 1:15.993 5 Extra Soft Cloudy 10° 27% -
52 1:15.885 5 Extra Soft Cloudy 10° 27% -
53 1:15.887 6 Extra Soft Cloudy 10° 27% -
54 1:15.618 6 Extra Soft Cloudy 10° 27% -
55 1:15.760 5 Extra Soft Cloudy 10° 27% -
56 1:15.732 5 Extra Soft Cloudy 10° 26% -
57 1:15.730 5 Extra Soft Cloudy 9° 26% -
58 1:15.705 5 Extra Soft Cloudy 9° 26% -
59 1:15.756 5 Extra Soft Cloudy 8° 26% -
60 1:15.647 5 Extra Soft Cloudy 8° 26% -
61 1:15.636 5 Extra Soft Cloudy 8° 26% -
62 1:15.566 5 Extra Soft Cloudy 8° 26% -
63 1:15.492 5 Extra Soft Cloudy 8° 26% -
64 1:15.330 3 Extra Soft Cloudy 8° 26% -
65 1:15.440 2 Extra Soft Cloudy 8° 26% -
66 1:15.354 2 Extra Soft Cloudy 9° 26% -
67 1:15.866 2 Extra Soft Cloudy 9° 26% -
68 1:16.497 2 Extra Soft Cloudy 9° 26% -
69 1:17.356 2 Extra Soft Cloudy 9° 26% -
70 1:18.324 2 Extra Soft Cloudy 8° 26% -
Back to top Go down
View user profile
 
Seasn 25 Race 6 Zolder
Back to top 
Page 1 of 1
 Similar topics
-
» RuPaul's Drag Race
» Race is Artificial
» "Pride" in your culture/race/whatever
» The Amazing Race 15 - Meet The Cast
» Bill O'Reilly on the black / race issue.

Permissions in this forum:You cannot reply to topics in this forum
Xtreme Racing :: Season 25-
Jump to: